Regional Weather Roundup
Issued by NWS

Home | Current Version | Previous Version | Graphics & Text | Print | Product List | Glossary On
Versions: 1 2 3 4 5 6 7 8 9 10 11 12 13 14 15 16 17 18 19 20 21 22 23 24 25 26 27 28 29 30 31 32 33 34 35 36 37 38 39 40 41 42 43 44 45 46 47 48 49 50
000
ASUS43 KLMK 100502
RWRKY
KENTUCKY REGIONAL WEATHER ROUNDUP
NATIONAL WEATHER SERVICE LOUISVILLE KY
1200 AM EST SAT DEC 10 2016

NOTE "FAIR" INDICATES FEW OR NO CLOUDS BELOW 12,000 FEET
WITH NO SIGNIFICANT WEATHER AND/OR OBSTRUCTIONS TO VISIBILITY.

KYZ001>023-026-027-061>063-070>075-100600-
WESTERN AND SOUTH CENTRAL KENTUCKY

CITY           SKY/WX    TMP DP  RH WIND       PRES   REMARKS
PADUCAH        CLEAR     18  13  80 CALM      30.61R
HENDERSON      CLEAR     18  12  79 CALM      30.61R
OWENSBORO      CLEAR     22  18  85 CALM      30.60S
HOPKINSVILLE   CLEAR     23  16  73 CALM      30.59R
BOWLING GREEN  CLEAR     22  15  75 CALM      30.60S
GLASGOW        NOT AVBL
$$

KYZ024-025-028>034-038-045-046-053-100600-
NORTH CENTRAL KENTUCKY

CITY           SKY/WX    TMP DP  RH WIND       PRES   REMARKS
LOUISVILLE/SDF MOCLDY    24  12  60 W6        30.58R WCI  17
LOUISVILLE/LOU MOCLDY    24  14  65 CALM      30.59R
FORT KNOX      MOCLDY    19  14  81 CALM      30.55R
$$

KYZ035>037-039>044-047>052-055>060-089>105-100600-
NORTHEAST KENTUCKY

CITY           SKY/WX    TMP DP  RH WIND       PRES   REMARKS
LEXINGTON      CLOUDY    22  12  65 CALM      30.54R
COVINGTON      MOCLDY    20  14  77 SW5       30.52R WCI  13
FRANKFORT      CLEAR     18  12  77 SW3       30.54S
$$

KYZ054-064>069-076>088-106>120-100600-
SOUTHEAST KENTUCKY

CITY           SKY/WX    TMP DP  RH WIND       PRES   REMARKS
JACKSON        PTCLDY    20  13  74 CALM      30.50F
LONDON         CLEAR     18  12  77 CALM      30.53R
SOMERSET       CLEAR     18  14  86 CALM      30.57S
MIDDLESBORO    CLEAR     19  17  89 CALM      30.54R
MONTICELLO     CLEAR     11   8  88 W8        30.57S WCI  -1
$$





USA.gov is the U.S. government's official web portal to all federal, state and local government web resources and services.